Location: New Canada
(47.1017°N, 68.5042°W)
Time: 02:51:11
(UTC+00:00)

COSMOS 1818 DEB - Pass Details

Date: 30 November 2023
Orbit: 754 x 785 km, 65.0° (Epoch: 12 November)

Event Time Altitude Azimuth Distance (km) Brightness Sun altitude
Rises 00:25:43 0° 300° (WNW) 3,272 ? -36.4°
Reaches altitude 10° 00:30:00 10° 333° (NNW) 2,349 ? -37.1°
Enters shadow 00:30:34 11° 339° (NNW) 2,292 ? -37.2°
